Wind_Speed
24 25 26 26 25 24 23 22 22 20 19 16 15 15 14 13 13 12 11 11 10 8 8 7 7 8 8 8 9 9 9 10 10 11 13 14 15 16 17 19 20 22 22 22
26 26 27 28 28 27 27 26 25 24 22 20 18 18 17 16 16 15 14 14 12 10 10 10 10 10 9 9 9 9 10 11 11 12 13 14 15 16 17 18 19 21 22 22
29 28 28 30 29 29 29 28 27 26 24 22 20 19 19 19 18 17 17 16 15 14 13 12 11 11 11 11 11 11 11 12 12 12 12 13 14 16 17 18 19 20 22 23
34 33 34 31 30 30 30 30 30 29 27 25 23 22 22 21 20 19 18 18 18 18 17 16 15 14 14 14 13 13 13 13 13 13 13 14 14 14 15 18 20 20 21 23
38 37 36 34 32 31 31 31 29 29 27 25 24 24 24 24 22 20 19 20 21 21 20 19 18 17 17 16 16 15 14 14 14 14 14 14 15 15 16 17 18 19 19 22
40 39 39 35 33 33 32 32 29 27 27 26 25 25 25 25 24 22 22 22 21 21 20 20 20 19 19 19 18 18 16 16 16 16 16 15 16 17 18 18 18 19 20 21
39 39 38 36 35 34 33 30 28 27 27 26 26 26 26 26 26 24 24 23 22 21 22 22 22 21 20 21 20 19 19 19 19 18 18 18 18 18 19 19 19 20 21 21
37 37 37 35 34 32 31 30 29 27 27 26 26 26 26 26 26 26 25 24 24 23 24 24 23 22 22 22 21 22 21 21 21 21 20 20 20 21 21 20 20 21 22 23
35 35 34 33 33 32 31 30 29 28 27 26 25 25 25 26 26 26 27 26 25 24 24 24 23 23 23 23 23 23 23 23 22 22 22 22 22 21 21 22 23 23 24 25
32 32 31 30 30 30 29 29 28 28 27 27 26 25 25 25 25 25 26 26 25 25 25 25 24 24 23 23 24 24 24 23 23 22 22 23 23 23 24 25 25 25 26 26
29 29 28 28 28 28 28 28 28 27 27 26 25 26 25 25 25 25 26 26 25 25 24 24 24 24 24 24 24 23 23 23 22 22 22 23 24 25 26 26 26 27 27 28
28 28 28 27 27 27 27 26 26 25 25 25 24 24 25 25 24 25 25 25 25 25 25 25 25 24 24 23 23 23 24 23 23 23 24 25 26 27 27 27 27 27 28 29
27 27 27 27 26 25 25 25 25 25 25 25 24 24 25 24 24 24 25 24 24 24 24 24 24 24 23 22 22 22 23 23 23 24 24 25 26 26 26 27 27 27 28 30
26 26 26 26 26 25 25 25 25 24 24 24 25 24 24 23 23 22 22 23 23 23 24 23 23 22 22 21 21 22 23 23 23 24 24 24 25 26 26 27 27 29 29 30
24 25 25 24 24 24 23 23 23 23 22 22 22 22 22 22 21 21 20 20 21 22 22 22 21 20 21 21 21 22 23 24 24 24 24 26 26 26 27 28 29 30 31 32
22 23 23 22 22 21 20 20 19 18 19 19 19 19 19 20 19 19 19 18 19 19 19 20 20 20 21 21 22 23 23 23 23 24 25 26 26 26 27 28 30 31 32 33
21 20 20 19 18 17 16 16 16 16 15 16 16 16 16 17 17 16 16 17 17 18 19 19 19 20 20 21 21 21 22 22 22 23 23 24 26 27 29 30 30 32 33 33
19 19 18 17 17 16 16 15 14 13 13 13 14 14 15 15 15 15 15 15 15 16 17 19 19 19 19 19 19 20 20 21 21 22 23 25 27 29 29 29 30 31 32 33
16 16 15 15 15 15 14 13 13 13 13 13 13 13 13 14 14 14 13 14 15 16 17 17 16 16 16 16 17 18 19 20 21 23 24 25 26 27 27 28 30 31 32 33
14 13 13 13 13 12 11 11 11 10 10 10 11 11 11 10 10 11 11 12 12 12 12 12 13 13 14 15 16 17 18 20 21 22 23 24 26 27 28 29 30 31 32 32
14 12 12 12 11 11 10 10 9 9 8 8 8 8 7 7 8 8 8 8 9 9 10 11 12 13 15 16 16 17 19 20 22 23 25 26 27 28 29 29 30 30 31 31
14 12 11 11 11 10 10 9 9 8 8 8 7 7 7 7 8 8 8 9 9 10 11 12 14 15 16 17 18 19 20 22 24 25 26 27 28 29 29 29 29 29 29 29
14 13 13 12 11 10 9 9 8 8 8 7 7 7 7 7 7 7 8 9 10 11 13 14 15 17 18 19 20 21 23 24 26 27 27 28 29 29 29 28 28 28 28 28
14 13 13 12 11 9 9 8 7 7 7 7 6 6 6 7 8 9 10 11 12 14 15 16 17 19 20 21 23 24 25 26 26 27 28 28 28 28 27 26 26 26 26 27
14 13 13 12 10 9 8 7 7 7 6 6 7 7 8 8 9 10 12 13 15 16 17 19 20 21 22 24 25 25 26 26 26 27 27 27 26 25 24 24 25 25 25 25
13 12 12 11 9 9 8 7 7 6 7 7 8 9 10 11 12 13 15 17 18 19 20 21 22 23 24 25 26 26 26 26 26 26 25 25 24 23 24 24 24 24 23 23
12 11 10 9 8 7 7 7 7 8 9 9 10 11 12 14 15 17 18 19 20 21 22 23 24 25 26 26 26 26 25 25 25 24 24 23 23 23 23 23 22 22 22 21
Wind_Direction
233 232 234 238 242 247 252 256 262 266 267 270 271 276 279 284 281 280 284 288 293 292 286 279 278 276 278 278 272 271 268 260 260 255 251 250 248 250 250 249 248 247 250 254
237 236 238 241 244 249 253 258 262 266 268 269 271 271 275 279 279 277 279 280 282 285 288 279 275 273 275 277 274 271 269 266 263 260 256 251 247 250 251 249 250 251 253 257
244 242 243 245 248 252 256 259 263 266 269 268 267 267 270 273 275 276 277 277 276 278 281 280 276 276 275 275 275 273 271 271 268 264 260 257 256 258 256 254 253 255 255 258
246 247 248 250 251 254 258 261 263 265 266 265 265 264 266 269 269 268 272 274 274 277 274 271 273 275 275 273 274 273 274 273 268 264 263 261 261 261 263 262 260 259 260 261
246 248 251 253 254 257 260 262 263 265 266 265 265 263 263 263 264 265 267 271 273 273 269 269 271 271 270 269 270 270 273 273 270 269 268 266 265 264 266 269 268 268 270 268
246 248 251 253 256 258 262 264 265 267 265 263 263 262 263 261 264 265 265 269 271 269 266 266 267 268 267 270 269 267 269 271 270 272 274 270 268 267 268 270 270 267 270 270
244 247 251 254 257 259 260 264 265 264 263 261 261 260 261 261 262 263 265 266 268 266 266 268 267 266 271 268 269 266 265 268 270 271 271 270 270 270 272 273 272 271 271 270
243 245 248 252 255 257 260 261 263 262 262 262 261 260 260 261 262 261 263 264 264 263 266 268 266 264 268 266 266 265 265 268 269 269 270 269 269 271 273 274 277 277 274 273
244 246 248 251 253 255 257 259 259 259 259 260 261 260 259 259 260 260 260 261 261 262 264 266 265 263 264 264 263 264 264 265 268 269 266 266 269 271 273 274 277 277 277 276
242 244 245 248 251 252 253 255 257 258 257 258 257 258 257 257 258 258 257 258 260 262 265 265 264 265 265 262 262 261 263 264 267 268 266 265 268 270 272 274 276 277 279 279
240 242 245 248 250 250 250 252 254 255 255 255 255 256 255 254 254 257 257 257 258 261 263 263 263 264 264 262 261 263 263 263 266 267 269 269 269 269 271 274 275 277 278 279
241 243 245 246 248 249 250 251 253 253 251 253 254 253 254 253 254 255 256 256 257 260 261 261 262 262 261 261 261 263 262 261 264 265 268 270 272 273 273 274 276 277 279 280
239 241 244 246 248 249 249 250 252 252 250 250 252 254 255 256 254 253 254 254 256 258 259 260 261 260 259 262 261 260 261 261 262 264 267 269 270 273 276 278 278 279 282 284
240 242 245 247 249 250 252 253 252 251 250 249 248 252 252 252 253 252 252 253 253 255 257 260 261 261 260 260 259 260 260 261 263 265 267 269 272 274 277 280 281 283 286 287
238 241 244 247 248 251 252 252 252 251 249 248 247 248 248 247 248 249 250 251 251 253 255 257 258 258 258 257 258 261 262 262 263 265 268 272 272 275 278 281 283 285 286 288
236 239 243 245 247 248 249 250 248 245 245 244 244 243 243 243 244 245 247 249 250 252 254 256 256 257 257 255 257 260 260 259 262 267 271 273 275 279 282 284 286 287 287 289
234 235 238 239 238 238 238 240 240 242 240 237 236 236 237 239 239 240 243 246 249 252 254 257 256 255 256 257 257 259 262 264 268 271 273 277 281 284 286 286 287 289 290 291
226 226 228 229 229 228 229 232 234 232 229 227 227 231 232 231 233 237 239 241 245 250 253 253 251 252 257 259 260 262 265 268 271 274 279 283 286 287 287 289 291 293 294 296
216 219 222 222 220 219 220 222 223 223 222 220 222 226 227 229 232 234 237 239 243 249 251 250 251 255 259 262 263 266 270 273 277 280 283 287 289 290 291 293 296 298 299 300
206 204 203 202 204 206 206 201 201 204 206 209 216 221 223 225 228 231 234 239 244 246 248 252 257 262 269 272 272 275 278 281 283 286 290 292 294 295 297 299 301 302 303 304
188 185 184 186 187 186 182 178 180 186 193 199 204 207 211 216 220 224 228 235 241 248 256 263 265 268 272 275 278 282 285 288 290 293 295 296 297 299 301 302 304 304 305 306
179 177 176 177 176 173 172 172 174 177 181 186 192 199 206 213 219 225 233 243 252 260 267 270 271 272 277 283 287 290 292 294 296 297 298 299 300 302 304 305 306 306 308 309
176 177 175 174 172 172 174 176 179 184 190 195 199 204 211 219 229 242 253 262 269 274 276 277 279 283 287 291 294 295 296 297 297 299 300 301 303 304 305 306 307 308 309 311
174 173 173 173 173 176 181 186 193 198 202 204 209 219 230 240 250 258 264 270 276 281 284 287 289 290 292 294 295 296 297 297 298 299 301 302 304 306 307 307 309 310 312 313
171 172 173 174 178 184 188 191 195 198 204 216 229 240 249 258 265 271 274 279 284 286 289 291 293 294 295 296 297 297 297 298 299 301 303 304 305 307 307 309 311 313 314 315
174 177 177 179 183 187 191 197 205 217 232 243 253 263 271 276 279 282 284 286 288 289 291 292 294 294 295 296 297 298 298 299 301 303 304 305 306 307 308 310 313 314 315 316
174 179 182 186 190 195 204 218 234 245 253 262 269 274 278 281 284 286 287 288 290 291 292 293 293 294 295 296 297 298 300 301 302 303 304 305 306 307 308 310 312 314 315 317
Height
5800 5803 5805 5807 5810 5812 5814 5816 5818 5820 5821 5823 5824 5825 5826 5826 5827 5827 5827 5828 5827 5827 5826 5825 5825 5825 5824 5824 5824 5824 5824 5824 5823 5824 5824 5825 5826 5826 5827 5828 5830 5831 5833 5834
5795 5797 5800 5802 5804 5806 5809 5811 5813 5815 5817 5819 5820 5820 5821 5822 5823 5823 5824 5824 5824 5824 5823 5823 5822 5822 5822 5821 5821 5822 5822 5821 5821 5821 5821 5821 5822 5822 5823 5824 5825 5826 5828 5828
5788 5791 5794 5796 5799 5801 5803 5805 5807 5809 5812 5813 5814 5815 5816 5817 5818 5819 5819 5820 5820 5820 5820 5820 5820 5819 5819 5819 5819 5819 5819 5818 5818 5818 5818 5818 5818 5818 5819 5820 5821 5821 5822 5823
5781 5785 5786 5791 5793 5795 5796 5798 5801 5803 5805 5807 5808 5810 5811 5812 5813 5814 5815 5815 5815 5816 5816 5816 5816 5816 5816 5816 5816 5816 5815 5815 5814 5814 5814 5814 5814 5815 5815 5815 5816 5816 5817 5817
5773 5776 5779 5783 5786 5788 5790 5791 5794 5796 5797 5799 5801 5803 5805 5805 5807 5808 5809 5810 5810 5810 5811 5811 5811 5811 5811 5812 5812 5812 5811 5811 5811 5811 5811 5811 5811 5811 5811 5811 5811 5811 5811 5811
5765 5768 5771 5777 5779 5780 5783 5784 5787 5788 5790 5792 5794 5796 5798 5799 5800 5802 5803 5803 5804 5805 5805 5806 5806 5806 5806 5807 5807 5806 5806 5807 5807 5807 5807 5807 5807 5807 5807 5807 5807 5807 5807 5806
5757 5760 5763 5768 5770 5773 5777 5779 5780 5781 5782 5784 5786 5789 5791 5792 5793 5795 5796 5797 5798 5799 5800 5800 5800 5801 5801 5801 5801 5801 5802 5802 5802 5802 5802 5802 5802 5802 5802 5802 5801 5801 5801 5800
5749 5753 5758 5760 5762 5766 5768 5770 5772 5773 5775 5777 5778 5780 5782 5784 5785 5787 5789 5790 5791 5792 5793 5793 5794 5794 5794 5795 5795 5796 5796 5796 5796 5796 5796 5796 5796 5796 5795 5795 5795 5795 5794 5794
5743 5747 5749 5752 5755 5757 5760 5762 5764 5765 5767 5769 5771 5773 5775 5776 5778 5779 5781 5782 5784 5785 5786 5787 5787 5787 5788 5788 5788 5789 5789 5789 5789 5789 5789 5789 5790 5790 5789 5789 5789 5788 5787 5786
5735 5738 5741 5744 5747 5749 5752 5754 5756 5758 5760 5762 5763 5765 5767 5769 5770 5771 5773 5774 5776 5778 5779 5779 5780 5780 5780 5781 5781 5782 5782 5783 5783 5782 5782 5783 5783 5783 5783 5783 5782 5781 5780 5779
5727 5730 5734 5737 5739 5742 5744 5747 5749 5750 5752 5753 5755 5757 5759 5760 5762 5764 5765 5767 5768 5770 5771 5771 5772 5773 5773 5774 5774 5775 5775 5776 5776 5776 5776 5776 5776 5776 5775 5775 5774 5773 5772 5771
5721 5724 5727 5730 5732 5735 5737 5739 5741 5743 5744 5746 5748 5749 5751 5752 5754 5756 5757 5759 5761 5762 5763 5764 5765 5766 5766 5766 5767 5768 5768 5769 5769 5770 5769 5769 5769 5768 5767 5767 5766 5765 5764 5763
5714 5717 5720 5723 5725 5728 5730 5732 5733 5735 5737 5739 5741 5742 5744 5745 5747 5748 5750 5752 5753 5754 5755 5756 5757 5758 5759 5759 5760 5761 5762 5762 5762 5763 5762 5762 5762 5761 5760 5759 5758 5757 5755 5754
5707 5711 5713 5716 5718 5721 5723 5724 5726 5728 5729 5731 5733 5735 5737 5738 5740 5741 5743 5745 5746 5747 5748 5749 5749 5750 5751 5753 5754 5754 5755 5755 5756 5756 5755 5755 5754 5754 5753 5752 5751 5749 5747 5746
5701 5704 5707 5709 5712 5714 5716 5717 5719 5721 5722 5724 5726 5728 5730 5732 5733 5735 5737 5738 5740 5740 5741 5742 5743 5744 5745 5746 5747 5748 5748 5748 5749 5749 5748 5748 5747 5746 5745 5744 5742 5741 5739 5737
5695 5698 5701 5704 5706 5708 5709 5711 5713 5714 5716 5718 5720 5722 5724 5726 5728 5730 5731 5732 5734 5735 5736 5737 5738 5739 5740 5740 5741 5742 5742 5742 5742 5742 5742 5741 5740 5739 5738 5736 5735 5733 5730 5728
5690 5693 5696 5698 5700 5702 5704 5706 5707 5709 5711 5713 5715 5717 5719 5721 5723 5724 5726 5727 5728 5729 5731 5732 5733 5733 5734 5735 5735 5735 5735 5736 5736 5735 5735 5734 5733 5731 5730 5728 5726 5724 5721 5718
5686 5688 5691 5693 5695 5698 5699 5701 5703 5705 5707 5709 5711 5713 5715 5716 5718 5720 5721 5722 5724 5725 5726 5727 5727 5728 5729 5730 5730 5730 5730 5730 5729 5729 5728 5727 5725 5723 5721 5719 5717 5715 5712 5709
5682 5685 5687 5689 5691 5693 5695 5697 5699 5701 5703 5705 5707 5709 5711 5713 5715 5716 5717 5719 5720 5721 5722 5722 5723 5724 5724 5724 5724 5724 5724 5724 5723 5722 5721 5719 5718 5716 5714 5711 5709 5706 5703 5700
5679 5682 5684 5686 5689 5691 5692 5694 5696 5698 5701 5703 5705 5707 5709 5710 5712 5713 5714 5716 5716 5717 5718 5719 5719 5719 5720 5720 5720 5720 5719 5718 5717 5716 5714 5713 5711 5708 5706 5703 5701 5698 5694 5691
5678 5680 5683 5685 5687 5689 5691 5693 5695 5698 5700 5701 5703 5705 5707 5708 5710 5711 5712 5713 5714 5715 5715 5716 5716 5716 5716 5716 5715 5715 5714 5712 5711 5710 5708 5706 5703 5701 5698 5695 5692 5689 5686 5683
5677 5680 5682 5684 5687 5689 5691 5693 5695 5697 5699 5701 5703 5704 5706 5707 5709 5710 5711 5712 5712 5712 5713 5713 5713 5712 5712 5711 5710 5709 5708 5706 5704 5702 5700 5698 5695 5693 5690 5687 5684 5681 5678 5675
5677 5679 5682 5685 5687 5689 5691 5693 5695 5697 5699 5700 5702 5703 5705 5706 5707 5708 5709 5709 5709 5709 5709 5709 5709 5708 5707 5706 5704 5703 5701 5699 5697 5695 5693 5690 5688 5685 5682 5680 5677 5674 5670 5667
5677 5680 5683 5685 5687 5690 5691 5693 5695 5697 5698 5700 5701 5702 5703 5704 5705 5706 5706 5706 5706 5706 5705 5705 5704 5703 5701 5700 5698 5696 5695 5693 5690 5688 5686 5683 5680 5678 5675 5672 5669 5666 5663 5660
5677 5680 5683 5686 5688 5690 5691 5693 5694 5696 5698 5699 5700 5701 5701 5702 5702 5703 5703 5702 5702 5701 5701 5700 5698 5697 5696 5694 5692 5690 5688 5686 5683 5681 5678 5676 5673 5671 5668 5665 5663 5660 5657 5654
5678 5681 5684 5686 5688 5690 5691 5693 5694 5695 5696 5697 5698 5699 5699 5699 5699 5699 5699 5698 5697 5696 5695 5694 5692 5691 5689 5687 5685 5683 5681 5679 5676 5674 5671 5669 5666 5664 5662 5659 5656 5654 5651 5648
5679 5682 5684 5686 5687 5689 5691 5692 5693 5694 5695 5695 5696 5696 5696 5695 5695 5695 5694 5693 5692 5691 5689 5688 5686 5684 5682 5680 5678 5676 5673 5671 5669 5667 5665 5662 5660 5658 5655 5653 5651 5648 5645 5643